Location: Mercogliano
(40.9167°N, 14.7333°E)
Time: 14:01:54
(UTC+00:00)

Cosmos 1437 - Pass Details

Date: 18 September 2020
Orbit: 365 x 369 km, 81.2° (Epoch: 28 October)

Event Time Altitude Azimuth Distance (km) Brightness Sun altitude
Rises 18:10:21 0° 347° (NNW) 2,253 6.8 -13.1°
Reaches altitude 10° 18:12:22 10° 344° (NNW) 1,396 5.8 -13.5°
Maximum altitude 18:15:22 62° 262° (W) 431 3.0 -14.1°
Drops below altitude 10° 18:18:19 10° 181° (S) 1,382 5.2 -14.6°
Enters shadow 18:19:52 - 179° (S) 2,039 6.1 -14.9°
